Rochester, NY

8:30 AM EST on February 08, 2016 (GMT -0500)
Greater Rochester International

Weather History for KROC - November, 2013

Change the Weather History Date:

Tuesday, November 19, 2013

  Actual Average Record
Temperature  
Mean Temperature 32 °F 39 °F  
Max Temperature 38 °F 47 °F 73 °F (1941)
Min Temperature 25 °F 32 °F 11 °F (1894)
Degree Days  
Heating Degree Days 33 26  
Month to date heating degree days 410 428  
Since 1 July heating degree days 965 1061  
Cooling Degree Days 0 0  
Month to date cooling degree days 0 0  
Year to date cooling degree days 660 539  
Moisture  
Dew Point 25 °F    
Average Humidity 67    
Maximum Humidity 81    
Minimum Humidity 52    
Precipitation  
Precipitation 0.01 in 0.10 in 1.37 in (1889)
Month to date precipitation 1.67 1.84  
Year to date precipitation 32.61 30.54  
Snow  
Snow T in 0.20 in 5.00 in (1955)
Month to date snowfall 1.8 3.2  
Since 1 July snowfall 1.8 3.3  
Since 1 September snowfall 1.8 3.3  
Snow Depth 0.00 in    
Sea Level Pressure  
Sea Level Pressure 30.22 in    
Wind  
Wind Speed 11 mph (WNW)    
Max Wind Speed 26 mph    
Max Gust Speed 35 mph    
Visibility 10 miles    
Events Snow    
T = Trace of Precipitation, MM = Missing Value Source: NWS Daily Summary

Daily Weather History Graph

Daily Weather History Graph

Search for Another Location

Airport or City:

Trip Planner

Search our weather history database for the weather conditions in past years. The results will help you decide how hot, cold, wet, or windy it might be!

Date:

Astronomy

Nov. 19, 2013 Rise Set
Actual Time 7:08 AM EST 4:43 PM EST
Civil Twilight 6:37 AM EST 5:14 PM EST
Nautical Twilight 6:03 AM EST 5:48 PM EST
Astronomical Twilight 5:29 AM EST 6:22 PM EST
Moon 6:32 PM EST (11/19) 8:46 AM EST (11/19)
Length of Visible Light 10h 36m
Length of Day
9h 34m
Waning Gibbous, 96% of the Moon is Illuminated
Nov 19
Waning Gibbous
Nov 25
Last Quarter
Dec 2
New
Dec 9
First Quarter
Dec 17
Full

Hourly Weather History & Observations

Time (EST) Temp. Windchill Dew Point Humidity Pressure Visibility Wind Dir Wind Speed Gust Speed Precip Events Conditions
12:54 AM 37.9 °F 27.9 °F 26.1 °F 62% 29.92 in 10.0 mi West 19.6 mph 31.1 mph N/A   Overcast
1:54 AM 37.9 °F 27.6 °F 26.1 °F 62% 29.95 in 10.0 mi WNW 20.7 mph 25.3 mph N/A   Overcast
2:54 AM 37.0 °F 27.4 °F 25.0 °F 62% 29.98 in 10.0 mi West 17.3 mph 27.6 mph N/A   Overcast
3:54 AM 37.0 °F 26.7 °F 26.1 °F 65% 30.01 in 9.0 mi WNW 19.6 mph 29.9 mph 0.00 in Snow Light Snow
4:54 AM 37.0 °F 27.7 °F 27.0 °F 67% 30.04 in 9.0 mi West 16.1 mph 20.7 mph 0.00 in Snow Light Snow
5:54 AM 36.0 °F 28.0 °F 28.9 °F 76% 30.07 in 9.0 mi West 11.5 mph 18.4 mph 0.00 in   Overcast
6:54 AM 36.0 °F 28.5 °F 28.9 °F 76% 30.11 in 10.0 mi West 10.4 mph - 0.00 in   Overcast
7:54 AM 36.0 °F 28.0 °F 28.0 °F 73% 30.14 in 9.0 mi West 11.5 mph - 0.00 in Snow Light Snow
8:25 AM 35.6 °F 29.9 °F 28.4 °F 75% 30.14 in 6.0 mi NW 6.9 mph - 0.00 in Snow Light Snow
8:54 AM 36.0 °F 32.1 °F 28.0 °F 73% 30.17 in 9.0 mi WNW 4.6 mph - 0.01 in Snow Light Snow
9:22 AM 37.4 °F 31.4 °F 26.6 °F 65% 30.16 in 9.0 mi NW 8.1 mph 17.3 mph 0.00 in Snow Light Snow
9:54 AM 36.0 °F 28.0 °F 28.0 °F 73% 30.21 in 9.0 mi NW 11.5 mph - 0.00 in Snow Light Snow
10:11 AM 35.6 °F 27.5 °F 28.4 °F 75% 30.18 in 9.0 mi NW 11.5 mph - 0.00 in Snow Light Snow
10:54 AM 36.0 °F 27.1 °F 27.0 °F 70% 30.23 in 9.0 mi NW 13.8 mph - 0.00 in   Overcast
11:54 AM 36.0 °F 29.0 °F 26.1 °F 67% 30.25 in 10.0 mi NW 9.2 mph - 0.00 in   Overcast
12:54 PM 37.0 °F 28.1 °F 24.1 °F 59% 30.25 in 10.0 mi NW 15.0 mph 23.0 mph N/A   Overcast
1:54 PM 37.0 °F 28.9 °F 25.0 °F 62% 30.27 in 10.0 mi NW 12.7 mph 21.9 mph N/A   Overcast
2:54 PM 37.0 °F 28.5 °F 21.9 °F 54% 30.29 in 10.0 mi WNW 13.8 mph 20.7 mph N/A   Mostly Cloudy
3:54 PM 37.0 °F 28.5 °F 21.9 °F 54% 30.32 in 10.0 mi West 13.8 mph 19.6 mph N/A   Mostly Cloudy
4:54 PM 34.0 °F 25.5 °F 21.0 °F 59% 30.34 in 10.0 mi WNW 11.5 mph - N/A   Scattered Clouds
5:54 PM 33.1 °F 26.9 °F 21.0 °F 61% 30.37 in 10.0 mi WNW 6.9 mph - N/A   Mostly Cloudy
6:54 PM 32.0 °F 27.5 °F 21.9 °F 66% 30.38 in 10.0 mi West 4.6 mph - N/A   Scattered Clouds
7:54 PM 32.0 °F 27.5 °F 21.9 °F 66% 30.41 in 10.0 mi NW 4.6 mph - N/A   Mostly Cloudy
8:54 PM 30.9 °F 25.2 °F 21.9 °F 69% 30.43 in 10.0 mi NW 5.8 mph - N/A   Partly Cloudy
9:54 PM 30.0 °F 26.5 °F 21.9 °F 72% 30.45 in 10.0 mi WNW 3.5 mph - N/A   Partly Cloudy
10:54 PM 27.0 °F 23.0 °F 21.0 °F 78% 30.46 in 10.0 mi WNW 3.5 mph - N/A   Partly Cloudy
11:54 PM 26.1 °F - 21.0 °F 81% 30.48 in 10.0 mi Calm Calm - N/A   Mostly Cloudy